TimeADT,TemperatureF,Dew PointF,Humidity,Sea Level PressureIn,VisibilityMPH,Wind Direction,Wind SpeedMPH,Gust SpeedMPH,PrecipitationIn,Events,Conditions,WindDirDegrees,DateUTC
12:00 AM,62.6,60.8,94,29.76,12.0,SSE,19.6,27.6,N/A,Rain,Light Rain Showers,150,2012-10-21 03:00:00
1:00 AM,62.6,60.8,94,29.74,12.0,SSE,15.0,21.9,N/A,,Overcast,150,2012-10-21 04:00:00
2:00 AM,62.6,62.6,100,29.73,12.0,SSE,12.7,21.9,N/A,,Overcast,160,2012-10-21 05:00:00
3:00 AM,62,62,98,29.71,12,SSE,13.8,,,,Partly Cloudy,160,2012-10-21 06:00:00
3:00 AM,62.6,60.8,94,29.71,12.0,SSE,15.0,-,N/A,,Overcast,160,2012-10-21 06:00:00
3:42 AM,62.6,60.8,94,29.70,12.0,SSE,15.0,-,N/A,,Overcast,160,2012-10-21 06:42:00
4:00 AM,62.6,62.6,100,29.69,12.0,SSE,12.7,-,N/A,Rain,Light Rain Showers,160,2012-10-21 07:00:00
5:00 AM,62.6,62.6,100,29.69,10.0,South,12.7,-,N/A,Rain,Light Rain Showers,170,2012-10-21 08:00:00
5:10 AM,62.6,62.6,100,29.69,10.0,SSE,9.2,-,N/A,Rain,Light Rain Showers,160,2012-10-21 08:10:00
6:00 AM,60.8,60.8,100,29.67,10.0,SSE,9.2,-,N/A,Rain,Light Rain Showers,160,2012-10-21 09:00:00
6:26 AM,62.6,62.6,100,29.67,10.0,SSE,10.4,-,N/A,,Overcast,160,2012-10-21 09:26:00
6:41 AM,62.6,62.6,100,29.66,2.5,SSE,10.4,-,N/A,Rain,Light Rain Showers,160,2012-10-21 09:41:00
7:00 AM,62.6,62.6,100,29.66,5.0,SSE,8.1,-,N/A,Rain,Light Rain Showers,160,2012-10-21 10:00:00
7:11 AM,62.6,62.6,100,29.66,5.0,SSE,6.9,-,N/A,Rain,Light Rain Showers,160,2012-10-21 10:11:00
7:26 AM,62.6,62.6,100,29.66,3.0,SSE,9.2,-,N/A,,Overcast,150,2012-10-21 10:26:00
7:51 AM,62.6,62.6,100,29.67,0.5,South,8.1,-,N/A,Fog,Fog,180,2012-10-21 10:51:00
8:00 AM,62.6,62.6,100,29.67,0.5,South,9.2,-,N/A,Fog,Fog,190,2012-10-21 11:00:00
8:10 AM,60.8,60.8,100,29.67,0.2,South,9.2,-,N/A,Fog,Fog,170,2012-10-21 11:10:00
8:51 AM,60.8,60.8,100,29.66,0.5,SSW,5.8,-,N/A,Fog,Fog,200,2012-10-21 11:51:00
9:00 AM,61,61,98,29.65,0,SSW,4.6,,,Fog,Partial Fog,200,2012-10-21 12:00:00
9:00 AM,60.8,60.8,100,29.65,0.5,SSW,5.8,-,N/A,Fog,Fog,200,2012-10-21 12:00:00
9:27 AM,60.8,60.8,100,29.65,0.2,South,4.6,-,N/A,Fog,Fog,190,2012-10-21 12:27:00
9:38 AM,60.8,60.8,100,29.65,0.1,SSW,5.8,-,N/A,Fog,Fog,200,2012-10-21 12:38:00
10:00 AM,60.8,60.8,100,29.66,0.2,SSW,5.8,-,N/A,Fog,Fog,210,2012-10-21 13:00:00
10:09 AM,60.8,60.8,100,29.65,0.5,SSW,5.8,-,N/A,Fog,Fog,200,2012-10-21 13:09:00
10:14 AM,60.8,60.8,100,29.65,2.0,SSW,6.9,-,N/A,,Mostly Cloudy,200,2012-10-21 13:14:00
10:18 AM,60.8,60.8,100,29.65,15.0,SSW,6.9,-,N/A,,Mostly Cloudy,210,2012-10-21 13:18:00
10:38 AM,60.8,60.8,100,29.65,15.0,SW,9.2,-,N/A,,Overcast,230,2012-10-21 13:38:00
11:00 AM,62.6,60.8,94,29.65,15.0,WSW,12.7,-,N/A,,Overcast,240,2012-10-21 14:00:00
12:00 PM,60.8,59.0,94,29.64,15.0,SW,12.7,-,N/A,,Overcast,230,2012-10-21 15:00:00
12:12 PM,60.8,57.2,88,29.64,15.0,SW,10.4,17.3,N/A,,Overcast,230,2012-10-21 15:12:00
1:00 PM,60.8,57.2,88,29.63,15.0,SW,12.7,-,N/A,,Overcast,220,2012-10-21 16:00:00
1:21 PM,60.8,57.2,88,29.63,15.0,SW,11.5,18.4,N/A,,Overcast,220,2012-10-21 16:21:00
2:00 PM,60.8,55.4,82,29.63,15.0,SW,13.8,20.7,N/A,,Overcast,230,2012-10-21 17:00:00
3:00 PM,60,55,78,29.62,15,WSW,12.7,,,,Partly Cloudy,250,2012-10-21 18:00:00
3:00 PM,60.8,55.4,82,29.62,15.0,WSW,10.4,20.7,N/A,,Mostly Cloudy,250,2012-10-21 18:00:00
4:00 PM,59.0,55.4,88,29.62,15.0,WSW,12.7,-,N/A,,Mostly Cloudy,240,2012-10-21 19:00:00
5:00 PM,59.0,55.4,88,29.61,15.0,WSW,8.1,-,N/A,,Mostly Cloudy,240,2012-10-21 20:00:00
6:00 PM,57.2,53.6,88,29.61,15.0,SW,8.1,-,N/A,,Mostly Cloudy,230,2012-10-21 21:00:00
7:00 PM,55.4,53.6,94,29.62,15.0,WSW,6.9,-,N/A,,Mostly Cloudy,240,2012-10-21 22:00:00
8:00 PM,53.6,51.8,94,29.62,15.0,WSW,6.9,-,N/A,,Scattered Clouds,250,2012-10-21 23:00:00
9:00 PM,54,52,91,29.63,15,WSW,9.2,,,,Scattered Clouds,240,2012-10-22 00:00:00
9:00 PM,53.6,51.8,94,29.62,15.0,WSW,8.1,-,N/A,,Partly Cloudy,250,2012-10-22 00:00:00
10:00 PM,51.8,51.8,100,29.63,15.0,WSW,10.4,-,N/A,,Partly Cloudy,240,2012-10-22 01:00:00
11:00 PM,50.0,50.0,100,29.62,15.0,SW,5.8,-,N/A,,Partly Cloudy,220,2012-10-22 02:00:00